{"data":{"norad_id":63296,"epoch":"2026-05-25T03:52:10.551936Z","epoch_age_seconds":64223,"freshness":"FRESH","line1":"1 63296U 25055F   26145.16123324  .00007257  00000+0  37885-3 0  9997","line2":"2 63296  97.6498 284.7435 0011600 198.6122 161.4688 15.16176802 65519","mean_motion":15.16176802,"eccentricity":0.00116,"inclination_deg":97.6498,"raan_deg":284.7435,"arg_perigee_deg":198.6122,"mean_anomaly_deg":161.4688,"bstar":0.00037885,"rev_number":6551,"period_min":94.975730937216,"perigee_km":509.40936843595,"apogee_km":525.40703330197,"semimajor_km":6895.545200869,"source":"CELESTRAK","updated_at":"2026-05-25T13:38:03.646574Z"}}